Regional Weather Roundup
Issued by NWS

Home | Current Version | Previous Version | Graphics & Text | Print | Product List | Glossary On
Versions: 1 2 3 4 5 6 7 8 9 10 11 12 13 14 15 16 17 18 19 20 21 22 23 24 25 26 27 28 29 30 31 32 33 34 35 36 37 38 39 40 41 42 43 44 45 46 47 48 49 50
000
ASUS45 KBOU 241907
RWRCO

WEATHER ROUNDUP FOR COLORADO
NATIONAL WEATHER SERVICE DENVER/BOULDER CO
1200 PM MST MON NOV 24 2014

NOTE: "FAIR" INDICATES FEW OR NO CLOUDS BELOW 12000 FEET WITH NO
SIGNIFICANT WEATHER AND/OR OBSTRUCTIONS TO VISIBILITY.

COZ001>005-013-030-031-242000-
...NORTHWEST COLORADO...

CITY           SKY/WX    TMP DP  RH WIND       PRES   REMARKS
CRAIG          CLOUDY    30  18  60 W13       30.12S WCI  20
HAYDEN         CLOUDY    27  16  63 NW17G25   30.09S WCI  14
MEEKER         LGT SNOW  26  21  81 SW8       30.14R WCI  18
MOUNT WERNER   NOT AVBL
STEAMBOAT SPGS CLOUDY    25  20  80 CALM      30.08S
WALDEN         CLOUDY    21  14  73 NW18G24   30.00S WCI   6
$$

COZ006>008-011-242000-
...WEST CENTRAL VALLEYS...

CITY           SKY/WX    TMP DP  RH WIND       PRES   REMARKS
GRAND JUNCTION MOSUNNY   35  15  44 W5        30.20F WCI  31
MONTROSE       PTSUNNY   32  18  56 N5        30.20S WCI  27
EAGLE          FLURRIES  28  19  69 W10       30.12S WCI  19
RIFLE          FLURRIES  27  22  81 CALM      30.18S
DELTA          PTSUNNY   38  23  54 W13       30.18F
NUCLA          PTSUNNY   34  12  40 NW7       30.22F WCI  28
$$

COZ017>023-064>068-242000-
...SOUTHWEST COLORADO...

CITY           SKY/WX    TMP DP  RH WIND       PRES   REMARKS
DURANGO        PTSUNNY   34   5  29 NW15G23   30.08F WCI  24
CORTEZ         CLOUDY    37  12  35 NW17G26   30.17F
PAGOSA SPRINGS CLOUDY    29   7  39 CALM      30.06F
TELLURIDE      LGT SNOW  19  13  76 W14G22    30.11F WCI   6
WOLF CREEK PAS CLOUDY    10  -4  52 MISG      29.98F
$$

COZ009-010-012-014-032>034-037-058>063-242000-
...CENTRAL COLORADO...

CITY           SKY/WX    TMP DP  RH WIND       PRES   REMARKS
ASPEN          LGT SNOW  21  16  81 N7        30.06F WCI  12
BUENA VISTA    CLOUDY    28   7  41 NW10      30.02R WCI  18
COPPER MTN     CLOUDY    10   3  72 W21G29    29.91S WCI  -9
BERTHOUD PASS  SNOW       1  -2  85 MISG      29.85R VSB 1/4
COTTONWOOD PAS CLOUDY    23  10  58 N6        29.98S WCI  16
GUNNISON       MOSUNNY   21  12  68 NE3       30.11S
KREMMLING      CLOUDY    30  14  51 N9        30.04S WCI  22
LEADVILLE      SNOW      13   7  77 NW14      29.96F VSB 1/2 WCI  -2
MONARCH PASS     N/A      7   3  85 W28       30.03S WCI -16
SALIDA         PTSUNNY   31   4  31 W14G22    30.09R WCI  21
SUNLIGHT       CLOUDY   N/A N/A N/A W3        30.04S
WILKERSON PASS MOSUNNY   14   0  52 NW10G23   29.94R WCI   1
$$

COZ069>075-242000-
...SAN LUIS VALLEY/SANGRE DE CRISTO MOUNTAINS...

CITY           SKY/WX    TMP DP  RH WIND       PRES   REMARKS
ALAMOSA        MOSUNNY   30   3  31 VRB3      30.03F
LA VETA PASS   CLOUDY    19   5  53 S9G23     29.95S WCI   9
SAGUACHE       NOT AVBL
$$

COZ035-036-038>040-242000-
...NORTHERN COLORADO FRONT RANGE...

CITY           SKY/WX    TMP DP  RH WIND       PRES   REMARKS
DENVER INTL AP PTSUNNY   40   5  23 NW23G31   29.94F
DMNS CITY PARK   N/A     42   5  21 NW12G26   29.96S
AURORA         PTSUNNY   40   5  24 NW21      29.95F
FRONT RANGE AP NOT AVBL
ERIE MUNI ARPT MOSUNNY   44   1  17 NW14G21   29.96S
BOULDER MUN AP MOSUNNY   43   9  24 W10G18    29.96S
CENTENNIAL     PTSUNNY   38   6  26 NW16G31   29.95F
BROOMFIELD     PTSUNNY   43   9  24 W21       29.97R
FORT COLLINS   MOSUNNY   43  10  26 NW28G33   29.98R
LONGMONT       MOSUNNY   47   6  18 NW22G30   29.98R
$$

COZ041-046-047-076>085-087-088-242000-
...PIKES PEAK/PALMER DIVIDE AND SOUTHERN FOOTHILLS...

CITY           SKY/WX    TMP DP  RH WIND       PRES   REMARKS
COLO. SPRINGS  MOSUNNY   40   6  24 NW25G33   29.94S
A. F. ACADEMY  MOSUNNY   36   7  30 N14G25    29.94S
ELLICOTT       NOT AVBL
FALCON         NOT AVBL
FORT CARSON    MOSUNNY   41  10  28 VRB6      29.94S
LIMON          MOSUNNY   39   6  25 NW28G37   29.94S
MONUMENT HILL  PTSUNNY   32   9  37 NW21G26   29.94S WCI  20
TRINIDAD       CLOUDY    36  17  46 NW10      29.97F
$$

COZ042>045-048>051-090-091-242000-
...NORTHEAST COLORADO...

CITY           SKY/WX    TMP DP  RH WIND       PRES   REMARKS
GREELEY ARPT   MOSUNNY   43  12  28 NW30G39   29.96R
AKRON          PTSUNNY   42  14  32 NW23G33   29.92S
BURLINGTON     PTSUNNY   44  15  31 NW23      29.93R
WRAY           MOSUNNY   45  17  32 NW21G30   29.93R
STERLING       PTSUNNY   46  19  34 N20G26    29.93R
HOLYOKE        MOSUNNY   45  18  33 NW24G35   29.90S
FORT MORGAN    CLOUDY    41  12  30 NW22G30   29.95R
$$

COZ086-089-092>099-242000-
...SOUTHEAST COLORADO...

CITY           SKY/WX    TMP DP  RH WIND       PRES   REMARKS
PUEBLO         PTSUNNY   43   8  23 W13       29.97S
LA JUNTA       PTSUNNY   45  13  27 W13       29.97F
LAMAR          MOSUNNY   49  11  21 NW18G25   29.95F
SPRINGFIELD      N/A     43   7  22 NW15      29.96F
$$



USA.gov is the U.S. government's official web portal to all federal, state and local government web resources and services.